QPF
0.00 0.00 0.00 0.01 0.01 0.01 0.01 0.01 0.01 0.02 0.02 0.01 0.01 0.01 0.01 0.00 0.00 0.00 0.01 0.00 0.01 0.03 0.07 0.09 0.05 0.05 0.07 0.04 0.00 0.02 0.02 0.05 0.08 0.09 0.23 0.22 0.18 0.15 0.11 0.12 0.04 0.00 0.00
0.01 0.01 0.00 0.01 0.01 0.01 0.01 0.01 0.01 0.00 0.00 0.00 0.00 0.00 0.00 0.00 0.00 0.00 0.01 0.02 0.03 0.09 0.13 0.15 0.08 0.06 0.06 0.04 0.03 0.05 0.04 0.08 0.07 0.09 0.19 0.14 0.17 0.16 0.05 0.04 0.01 0.00 0.00
0.01 0.01 0.01 0.01 0.00 0.01 0.01 0.00 0.00 0.00 0.00 0.00 0.00 0.00 0.00 0.00 0.00 0.01 0.04 0.07 0.10 0.13 0.09 0.16 0.05 0.06 0.07 0.06 0.06 0.10 0.10 0.10 0.09 0.08 0.02 0.02 0.03 0.02 0.02 0.03 0.01 0.00 0.00
0.00 0.00 0.00 0.00 0.00 0.00 0.00 0.00 0.00 0.00 0.00 0.00 0.00 0.00 0.00 0.00 0.00 0.01 0.12 0.11 0.12 0.10 0.06 0.10 0.05 0.04 0.07 0.06 0.11 0.09 0.14 0.09 0.04 0.01 0.00 0.01 0.00 0.00 0.01 0.01 0.00 0.00 0.01
0.00 0.00 0.00 0.00 0.00 0.00 0.00 0.00 0.00 0.00 0.00 0.00 0.00 0.00 0.00 0.02 0.04 0.04 0.09 0.04 0.10 0.17 0.10 0.09 0.09 0.10 0.13 0.16 0.12 0.10 0.17 0.04 0.00 0.00 0.00 0.01 0.01 0.00 0.01 0.00 0.00 0.01 0.03
0.00 0.00 0.00 0.00 0.00 0.00 0.00 0.00 0.00 0.00 0.00 0.00 0.00 0.00 0.05 0.03 0.01 0.00 0.05 0.07 0.02 0.08 0.10 0.09 0.11 0.11 0.08 0.09 0.10 0.20 0.12 0.03 0.00 0.00 0.00 0.01 0.01 0.01 0.01 0.00 0.00 0.00 0.06
0.00 0.00 0.00 0.00 0.00 0.00 0.00 0.00 0.00 0.00 0.00 0.00 0.00 0.04 0.08 0.00 0.00 0.00 0.03 0.05 0.04 0.09 0.07 0.14 0.12 0.07 0.01 0.00 0.00 0.04 0.09 0.03 0.00 0.00 0.00 0.00 0.00 0.00 0.00 0.00 0.00 0.00 0.00
0.00 0.00 0.00 0.00 0.00 0.00 0.00 0.00 0.00 0.01 0.03 0.05 0.03 0.09 0.01 0.00 0.00 0.00 0.00 0.00 0.00 0.01 0.01 0.07 0.06 0.00 0.00 0.00 0.00 0.00 0.00 0.00 0.00 0.00 0.00 0.00 0.00 0.00 0.00 0.00 0.00 0.00 0.00
0.00 0.00 0.00 0.00 0.00 0.00 0.00 0.01 0.01 0.03 0.05 0.05 0.10 0.08 0.01 0.00 0.00 0.00 0.00 0.00 0.00 0.00 0.00 0.01 0.00 0.00 0.00 0.00 0.00 0.00 0.00 0.00 0.00 0.00 0.00 0.00 0.00 0.01 0.01 0.01 0.00 0.00 0.00
0.00 0.00 0.00 0.00 0.00 0.00 0.00 0.00 0.02 0.03 0.03 0.09 0.10 0.04 0.00 0.00 0.00 0.00 0.00 0.00 0.00 0.00 0.00 0.00 0.00 0.00 0.00 0.00 0.00 0.00 0.00 0.00 0.00 0.00 0.00 0.00 0.00 0.00 0.01 0.01 0.00 0.00 0.00
0.00 0.00 0.00 0.00 0.00 0.00 0.00 0.00 0.01 0.02 0.03 0.07 0.06 0.01 0.00 0.00 0.00 0.00 0.00 0.00 0.00 0.00 0.00 0.00 0.00 0.00 0.00 0.00 0.00 0.00 0.00 0.00 0.00 0.00 0.00 0.00 0.00 0.00 0.00 0.00 0.00 0.00 0.00
0.00 0.00 0.00 0.00 0.00 0.00 0.00 0.01 0.01 0.02 0.05 0.09 0.03 0.00 0.01 0.00 0.00 0.00 0.00 0.00 0.00 0.00 0.00 0.00 0.00 0.00 0.00 0.00 0.00 0.00 0.00 0.00 0.00 0.00 0.00 0.00 0.00 0.00 0.00 0.00 0.00 0.00 0.00
0.00 0.00 0.00 0.00 0.00 0.00 0.01 0.02 0.02 0.04 0.06 0.06 0.03 0.02 0.00 0.00 0.00 0.00 0.00 0.00 0.00 0.00 0.00 0.00 0.00 0.00 0.00 0.00 0.00 0.00 0.00 0.00 0.00 0.00 0.00 0.00 0.00 0.00 0.00 0.00 0.00 0.01 0.01
0.00 0.00 0.00 0.00 0.03 0.08 0.06 0.13 0.11 0.10 0.09 0.10 0.09 0.04 0.00 0.00 0.00 0.00 0.00 0.00 0.00 0.00 0.00 0.00 0.00 0.00 0.00 0.00 0.00 0.00 0.00 0.00 0.00 0.00 0.00 0.00 0.00 0.00 0.00 0.00 0.01 0.01 0.01
0.00 0.00 0.00 0.00 0.03 0.13 0.18 0.23 0.23 0.19 0.16 0.15 0.05 0.02 0.00 0.00 0.00 0.00 0.00 0.00 0.00 0.00 0.00 0.00 0.00 0.00 0.00 0.00 0.00 0.00 0.00 0.00 0.00 0.00 0.00 0.00 0.00 0.00 0.00 0.01 0.01 0.00 0.00
0.00 0.00 0.00 0.00 0.01 0.00 0.00 0.02 0.02 0.00 0.00 0.00 0.00 0.02 0.00 0.00 0.00 0.00 0.00 0.00 0.00 0.00 0.01 0.01 0.00 0.00 0.00 0.00 0.01 0.01 0.00 0.00 0.00 0.00 0.00 0.00 0.00 0.00 0.00 0.00 0.00 0.00 0.00
0.00 0.00 0.00 0.00 0.00 0.00 0.00 0.00 0.00 0.00 0.00 0.00 0.00 0.00 0.00 0.00 0.00 0.00 0.00 0.00 0.00 0.00 0.03 0.01 0.00 0.01 0.00 0.01 0.01 0.01 0.01 0.01 0.01 0.00 0.00 0.00 0.00 0.00 0.00 0.00 0.00 0.00 0.00
0.00 0.00 0.00 0.00 0.00 0.00 0.00 0.00 0.00 0.00 0.00 0.00 0.00 0.00 0.00 0.00 0.00 0.00 0.00 0.00 0.00 0.00 0.02 0.00 0.00 0.01 0.01 0.01 0.00 0.00 0.00 0.01 0.01 0.00 0.00 0.00 0.00 0.00 0.00 0.00 0.00 0.00 0.00
0.00 0.00 0.01 0.00 0.00 0.00 0.00 0.00 0.00 0.00 0.00 0.00 0.00 0.00 0.00 0.00 0.00 0.00 0.00 0.00 0.00 0.00 0.00 0.00 0.00 0.01 0.03 0.03 0.01 0.00 0.00 0.00 0.00 0.00 0.00 0.00 0.00 0.00 0.00 0.00 0.00 0.00 0.00
0.00 0.01 0.02 0.00 0.00 0.00 0.00 0.00 0.00 0.00 0.00 0.00 0.00 0.00 0.00 0.00 0.00 0.00 0.00 0.00 0.00 0.01 0.00 0.00 0.00 0.00 0.00 0.00 0.01 0.00 0.00 0.00 0.00 0.00 0.00 0.00 0.00 0.00 0.00 0.00 0.00 0.00 0.00
0.00 0.00 0.01 0.00 0.00 0.00 0.00 0.00 0.00 0.00 0.00 0.01 0.00 0.00 0.00 0.00 0.00 0.00 0.00 0.00 0.00 0.00 0.00 0.00 0.00 0.00 0.00 0.00 0.00 0.00 0.00 0.00 0.00 0.00 0.00 0.00 0.00 0.00 0.00 0.00 0.00 0.00 0.00
0.00 0.00 0.00 0.01 0.00 0.00 0.00 0.00 0.00 0.00 0.00 0.00 0.00 0.00 0.00 0.00 0.00 0.00 0.00 0.00 0.00 0.00 0.00 0.00 0.00 0.00 0.00 0.00 0.00 0.00 0.00 0.00 0.00 0.00 0.00 0.00 0.00 0.00 0.00 0.00 0.00 0.00 0.00
0.01 0.00 0.00 0.00 0.00 0.00 0.00 0.00 0.00 0.00 0.00 0.00 0.00 0.00 0.00 0.01 0.01 0.01 0.00 0.00 0.00 0.00 0.01 0.01 0.00 0.00 0.00 0.00 0.00 0.00 0.00 0.00 0.00 0.00 0.00 0.00 0.00 0.00 0.00 0.00 0.00 0.00 0.00
0.02 0.00 0.00 0.00 0.00 0.00 0.00 0.00 0.00 0.00 0.00 0.00 0.00 0.00 0.00 0.00 0.00 0.01 0.00 0.00 0.00 0.00 0.00 0.00 0.00 0.00 0.00 0.00 0.00 0.00 0.00 0.00 0.00 0.00 0.00 0.00 0.00 0.00 0.00 0.00 0.00 0.00 0.00
0.02 0.01 0.00 0.00 0.00 0.00 0.00 0.00 0.00 0.01 0.04 0.01 0.00 0.00 0.00 0.00 0.00 0.00 0.00 0.00 0.00 0.00 0.00 0.00 0.00 0.00 0.00 0.00 0.00 0.00 0.00 0.00 0.00 0.00 0.00 0.00 0.00 0.00 0.00 0.00 0.00 0.00 0.00
0.00 0.00 0.00 0.00 0.00 0.00 0.00 0.00 0.00 0.00 0.00 0.01 0.00 0.00 0.00 0.00 0.00 0.00 0.00 0.00 0.00 0.00 0.00 0.00 0.00 0.00 0.00 0.00 0.00 0.00 0.00 0.00 0.00 0.00 0.00 0.00 0.00 0.00 0.00 0.00 0.00 0.00 0.00
MSLP
995.65 996.20 996.87 997.43 997.92 998.47 999.32 999.82 1000.30 1000.99 1001.54 1002.20 1002.64 1003.15 1003.52 1003.93 1004.29 1004.85 1005.14 1005.47 1005.88 1006.50 1006.95 1007.30 1007.39 1007.61 1007.88 1008.06 1008.21 1008.63 1009.20 1009.51 1009.84 1010.32 1010.39 1010.52 1010.92 1011.26 1011.51 1012.03 1012.36 1013.05 1013.92
996.13 996.80 997.46 997.93 998.45 999.03 999.65 1000.12 1000.58 1001.15 1001.63 1002.07 1002.48 1002.92 1003.42 1003.90 1004.38 1004.77 1005.18 1005.25 1005.79 1006.22 1006.62 1007.10 1007.12 1007.35 1007.74 1007.95 1008.35 1008.82 1009.16 1009.52 1009.81 1010.34 1010.76 1011.20 1011.40 1011.67 1012.12 1012.42 1012.91 1013.89 1014.46
996.66 997.29 997.85 998.37 999.00 999.60 1000.03 1000.38 1000.74 1001.23 1001.58 1002.01 1002.53 1003.03 1003.38 1003.74 1004.20 1004.55 1004.93 1005.32 1005.67 1006.04 1006.46 1006.85 1007.03 1007.29 1007.62 1007.88 1008.29 1008.67 1009.09 1009.49 1009.92 1010.50 1011.31 1011.95 1012.19 1012.42 1013.00 1013.60 1014.20 1014.59 1015.10
997.12 997.71 998.32 998.89 999.39 999.89 1000.25 1000.68 1001.14 1001.45 1001.89 1002.34 1002.71 1002.90 1003.15 1003.65 1004.13 1004.37 1004.83 1005.28 1005.53 1005.92 1006.27 1006.60 1006.82 1007.03 1007.34 1007.65 1007.97 1008.26 1008.78 1009.35 1009.93 1010.81 1011.76 1012.35 1012.68 1013.32 1013.68 1014.11 1014.86 1015.35 1015.79
997.22 998.11 998.70 999.16 999.69 1000.20 1000.67 1001.08 1001.39 1001.81 1002.15 1002.39 1002.75 1003.15 1003.53 1004.27 1004.70 1004.71 1004.94 1005.22 1005.63 1006.12 1006.30 1006.46 1006.81 1006.75 1007.11 1007.36 1007.71 1008.11 1008.75 1009.41 1010.27 1011.14 1011.90 1012.55 1013.06 1013.55 1013.99 1014.60 1015.13 1015.83 1016.49
997.10 998.14 998.77 999.30 999.90 1000.47 1000.95 1001.36 1001.78 1002.04 1002.28 1002.64 1003.00 1003.58 1004.33 1005.20 1005.87 1005.58 1005.54 1005.57 1005.66 1005.97 1006.18 1006.57 1007.10 1007.38 1007.63 1007.67 1007.82 1008.07 1008.54 1009.26 1010.14 1010.94 1011.76 1012.51 1013.04 1013.61 1014.22 1014.74 1015.22 1015.84 1016.78
997.18 998.00 998.62 999.32 1000.07 1000.66 1001.23 1001.66 1002.09 1002.53 1002.73 1003.08 1003.57 1004.11 1005.04 1005.80 1006.14 1005.99 1005.91 1005.76 1005.93 1005.94 1006.04 1006.43 1006.73 1007.27 1007.56 1008.02 1008.37 1008.55 1008.92 1009.52 1009.88 1010.56 1011.56 1012.34 1012.94 1013.44 1013.97 1014.66 1015.25 1015.68 1016.36
997.40 997.90 999.00 999.75 1000.52 1001.19 1001.63 1001.98 1002.43 1002.84 1003.23 1003.69 1004.04 1004.62 1005.36 1006.26 1006.34 1006.23 1006.12 1006.14 1006.25 1006.28 1006.45 1006.58 1007.03 1007.30 1007.65 1008.20 1008.53 1009.05 1009.58 1010.10 1010.43 1010.79 1011.53 1012.24 1012.83 1013.46 1014.00 1014.56 1015.12 1015.99 1017.00
997.52 998.44 999.39 1000.08 1000.85 1001.39 1001.94 1002.34 1002.71 1003.25 1003.75 1004.05 1004.36 1004.90 1005.63 1006.45 1006.67 1006.61 1006.63 1006.69 1006.91 1007.10 1007.32 1007.29 1007.40 1007.85 1008.24 1008.49 1008.75 1009.54 1010.25 1011.00 1011.07 1011.19 1011.72 1012.48 1013.22 1013.60 1013.96 1014.69 1015.63 1016.15 1017.13
997.83 998.49 999.37 1000.11 1000.71 1001.34 1002.05 1002.48 1003.11 1003.53 1003.84 1004.31 1004.70 1005.20 1005.98 1006.68 1006.96 1007.04 1007.22 1007.31 1007.52 1007.72 1007.84 1007.94 1008.04 1008.57 1008.85 1008.98 1009.40 1009.96 1010.70 1011.40 1011.77 1012.40 1013.02 1013.45 1013.61 1014.22 1014.48 1014.41 1014.99 1015.92 1016.68
997.73 998.28 999.67 1000.20 1000.88 1001.60 1002.09 1002.66 1003.25 1003.50 1003.89 1004.47 1005.08 1005.61 1006.15 1006.72 1007.28 1007.32 1007.44 1007.51 1007.78 1008.07 1008.30 1008.55 1009.19 1009.14 1009.40 1009.69 1009.97 1010.34 1011.02 1011.63 1012.20 1012.69 1013.20 1013.69 1014.11 1014.55 1014.87 1015.00 1015.29 1015.59 1016.26
998.21 999.03 999.76 1000.46 1001.08 1001.83 1002.29 1002.90 1003.22 1003.55 1004.13 1004.69 1005.35 1005.98 1006.63 1007.20 1007.58 1007.63 1007.75 1007.90 1007.99 1008.24 1008.72 1009.23 1009.76 1009.73 1009.96 1010.24 1010.63 1011.04 1011.54 1012.02 1012.61 1013.10 1013.54 1013.98 1014.34 1014.75 1015.08 1015.36 1015.60 1015.96 1015.88
998.88 999.68 1000.08 1000.74 1001.33 1001.90 1002.58 1003.04 1003.43 1003.84 1004.28 1004.77 1005.37 1006.04 1006.89 1007.56 1007.96 1008.06 1008.22 1008.36 1008.40 1008.57 1009.20 1009.82 1010.11 1010.21 1010.60 1011.05 1011.32 1011.67 1012.04 1012.41 1012.88 1013.32 1013.72 1014.12 1014.48 1014.80 1015.15 1015.58 1015.73 1015.94 1015.96
999.31 999.84 1000.56 1001.01 1001.65 1002.08 1002.58 1003.28 1003.71 1003.95 1004.37 1004.77 1005.33 1005.99 1006.97 1007.67 1008.02 1008.45 1008.74 1008.88 1009.09 1009.68 1010.06 1010.31 1010.53 1010.77 1011.07 1011.74 1012.00 1012.14 1012.41 1012.73 1013.01 1013.38 1013.78 1014.14 1014.54 1014.94 1015.23 1015.44 1015.73 1015.82 1015.95
999.27 1000.13 1000.67 1001.19 1002.04 1003.03 1003.99 1004.63 1004.56 1004.97 1004.90 1004.75 1005.23 1005.80 1006.63 1007.45 1007.90 1008.20 1008.60 1008.93 1009.51 1009.98 1010.31 1010.55 1010.80 1011.29 1011.73 1011.98 1012.03 1012.21 1012.52 1012.87 1013.11 1013.40 1013.75 1014.10 1014.43 1014.68 1014.96 1015.23 1015.33 1015.46 1015.55
999.41 999.93 1000.19 1000.91 1001.75 1002.71 1003.68 1005.02 1005.65 1005.66 1005.23 1004.90 1005.15 1005.69 1006.23 1006.98 1007.92 1008.42 1008.74 1009.22 1009.79 1009.98 1010.27 1010.56 1010.84 1011.27 1011.51 1011.74 1011.91 1012.05 1012.42 1012.66 1012.89 1013.15 1013.46 1013.74 1013.93 1014.32 1014.54 1014.74 1014.71 1014.73 1014.93
999.28 999.62 1000.19 1000.66 1001.24 1002.03 1002.88 1004.10 1005.53 1006.46 1005.98 1006.02 1006.03 1006.18 1006.66 1007.61 1008.24 1008.69 1009.09 1009.57 1009.94 1010.17 1010.08 1010.33 1010.51 1010.71 1010.88 1011.21 1011.61 1011.74 1012.00 1012.21 1012.49 1012.69 1013.03 1013.20 1013.41 1013.72 1013.80 1013.93 1014.11 1014.20 1014.22
999.00 999.52 1000.04 1000.46 1000.82 1001.73 1002.42 1003.24 1004.24 1004.99 1005.84 1006.94 1007.78 1007.86 1008.16 1008.47 1008.80 1009.11 1009.46 1009.96 1010.45 1010.26 1009.88 1009.87 1009.97 1010.18 1010.48 1010.80 1011.02 1011.24 1011.65 1012.02 1012.20 1012.38 1012.55 1012.67 1012.80 1013.02 1013.31 1013.38 1013.36 1013.48 1013.68
998.98 999.50 1000.07 1000.64 1000.93 1001.60 1002.07 1002.86 1003.25 1004.01 1005.21 1006.84 1008.05 1008.82 1009.28 1009.47 1009.58 1009.64 1009.69 1009.51 1009.43 1009.52 1009.55 1009.48 1009.48 1009.75 1010.12 1010.38 1010.64 1010.90 1010.84 1011.38 1011.75 1011.89 1012.06 1012.09 1012.07 1012.24 1012.27 1012.36 1012.52 1012.76 1012.93
999.38 999.84 1000.30 1000.45 1000.91 1001.54 1002.21 1002.55 1003.14 1003.94 1004.96 1005.92 1007.21 1008.65 1009.32 1009.53 1009.95 1010.13 1009.93 1009.45 1009.16 1009.09 1009.06 1009.18 1009.24 1009.41 1009.62 1009.88 1010.12 1010.46 1010.71 1011.18 1011.21 1011.39 1011.47 1011.47 1011.37 1011.15 1011.35 1011.62 1011.85 1012.17 1012.30
998.63 999.81 1000.02 1000.29 1000.69 1001.15 1001.68 1002.24 1002.67 1003.19 1004.03 1004.96 1006.52 1007.94 1008.27 1008.95 1009.39 1009.41 1009.20 1008.99 1008.85 1008.62 1008.64 1008.67 1008.86 1009.05 1009.17 1009.32 1009.49 1009.94 1010.37 1010.53 1010.65 1010.50 1010.51 1010.49 1010.56 1010.87 1011.05 1011.17 1011.31 1011.39 1011.42
999.07 999.08 999.74 999.84 1000.42 1001.14 1001.49 1001.90 1002.48 1003.09 1003.89 1004.69 1006.13 1007.79 1008.02 1008.28 1008.35 1008.22 1008.28 1008.40 1008.48 1008.41 1008.28 1008.38 1008.47 1008.61 1008.76 1009.07 1009.21 1009.48 1009.81 1010.05 1010.07 1010.08 1010.06 1009.88 1010.00 1010.20 1010.36 1010.58 1010.74 1010.79 1010.84
1000.31 999.61 1000.03 1000.49 1000.11 1001.12 1002.02 1002.17 1002.82 1003.06 1003.69 1004.60 1005.76 1007.12 1008.33 1008.47 1008.39 1008.41 1007.74 1007.90 1008.85 1008.66 1009.14 1009.49 1009.14 1009.83 1010.13 1010.33 1010.37 1010.99 1011.12 1011.06 1010.74 1009.82 1009.62 1009.69 1009.80 1009.85 1009.86 1009.97 1010.04 1010.06 1010.07
1002.33 1002.13 1002.04 1002.32 1002.13 1002.73 1003.59 1004.20 1004.72 1005.03 1005.25 1005.83 1006.37 1007.47 1008.59 1008.74 1008.99 1009.19 1009.55 1009.78 1010.11 1010.25 1010.85 1011.36 1011.75 1012.29 1012.35 1012.36 1012.73 1012.73 1012.95 1012.84 1011.59 1010.60 1009.83 1009.46 1009.33 1009.25 1009.28 1009.31 1009.30 1009.13 1009.17
1005.14 1005.21 1004.86 1004.73 1004.92 1005.20 1005.68 1006.49 1006.65 1007.20 1007.60 1007.99 1008.76 1009.36 1009.66 1009.89 1010.24 1010.55 1010.57 1010.77 1010.92 1011.37 1012.18 1012.79 1013.09 1013.49 1013.99 1014.14 1014.04 1014.03 1013.67 1012.87 1012.23 1011.42 1010.37 1010.03 1009.86 1009.65 1009.42 1009.25 1009.29 1009.15 1008.99
1006.68 1006.92 1007.29 1007.69 1007.89 1008.11 1008.33 1008.85 1009.24 1009.57 1010.00 1010.48 1011.06 1011.50 1011.84 1012.12 1012.37 1012.42 1012.22 1012.26 1012.45 1012.72 1013.20 1013.90 1014.46 1014.49 1014.69 1014.97 1015.32 1015.10 1014.27 1013.30 1012.62 1011.89 1011.09 1010.94 1010.99 1010.99 1011.13 1010.58 1010.09 1009.99 1009.89
Thickness
5756 5755 5752 5749 5746 5742 5735 5731 5728 5723 5718 5712 5708 5702 5699 5695 5692 5685 5681 5676 5671 5664 5659 5655 5652 5651 5648 5647 5645 5640 5635 5634 5629 5631 5636 5638 5638 5638 5640 5639 5639 5637 5634
5746 5743 5740 5739 5735 5730 5726 5724 5721 5716 5713 5708 5703 5699 5694 5689 5685 5680 5675 5674 5667 5661 5656 5652 5651 5650 5648 5647 5643 5639 5638 5638 5635 5630 5629 5632 5633 5633 5634 5637 5634 5628 5629
5736 5734 5731 5728 5724 5720 5718 5717 5715 5710 5707 5703 5697 5692 5689 5686 5682 5678 5673 5668 5664 5660 5655 5651 5649 5648 5646 5646 5643 5641 5640 5640 5638 5634 5628 5627 5628 5630 5627 5625 5624 5626 5626
5727 5725 5721 5719 5717 5714 5713 5710 5706 5703 5698 5694 5690 5688 5686 5683 5678 5675 5669 5665 5660 5654 5652 5649 5648 5647 5646 5646 5645 5646 5644 5641 5639 5634 5628 5625 5625 5623 5624 5623 5621 5621 5621
5721 5715 5713 5712 5711 5709 5705 5702 5698 5694 5691 5688 5684 5681 5679 5672 5668 5667 5665 5661 5655 5648 5647 5647 5645 5648 5646 5647 5647 5646 5643 5640 5635 5631 5627 5624 5623 5622 5622 5620 5619 5617 5616
5716 5710 5709 5707 5706 5702 5699 5694 5691 5688 5685 5681 5677 5673 5667 5660 5651 5653 5655 5654 5652 5648 5644 5643 5641 5640 5639 5641 5643 5644 5645 5640 5635 5632 5627 5624 5624 5623 5621 5620 5620 5619 5614
5711 5708 5706 5704 5698 5695 5692 5688 5685 5680 5678 5674 5670 5666 5658 5653 5647 5647 5647 5650 5647 5647 5646 5644 5643 5641 5642 5639 5638 5639 5639 5637 5638 5636 5629 5627 5626 5625 5623 5622 5621 5621 5618
5705 5705 5700 5696 5691 5687 5684 5682 5678 5675 5672 5667 5664 5660 5654 5646 5643 5644 5644 5644 5643 5643 5643 5643 5641 5641 5641 5638 5638 5637 5635 5633 5634 5635 5631 5629 5627 5625 5624 5623 5620 5616 5612
5700 5698 5694 5691 5685 5681 5678 5675 5674 5669 5665 5663 5660 5655 5649 5643 5638 5639 5639 5639 5637 5636 5635 5636 5638 5636 5633 5634 5636 5630 5627 5625 5628 5631 5629 5627 5624 5624 5623 5620 5616 5615 5610
5698 5696 5692 5688 5683 5679 5674 5672 5668 5665 5663 5659 5655 5651 5644 5639 5633 5633 5633 5633 5630 5628 5630 5631 5630 5630 5629 5631 5630 5627 5623 5622 5624 5623 5620 5619 5619 5618 5620 5622 5621 5616 5613
5700 5698 5687 5684 5680 5675 5672 5668 5663 5663 5661 5656 5650 5647 5642 5637 5632 5630 5630 5631 5628 5626 5625 5626 5623 5623 5624 5625 5626 5626 5622 5621 5619 5619 5618 5617 5616 5615 5615 5615 5616 5619 5616
5693 5688 5685 5681 5678 5672 5667 5663 5662 5661 5656 5652 5647 5642 5638 5633 5627 5626 5626 5627 5626 5625 5623 5621 5619 5619 5621 5621 5623 5619 5618 5619 5618 5617 5616 5615 5615 5613 5611 5613 5615 5616 5619
5685 5680 5679 5675 5672 5669 5664 5661 5658 5658 5655 5652 5647 5642 5635 5631 5627 5622 5622 5622 5622 5625 5620 5614 5613 5616 5616 5616 5616 5616 5617 5618 5617 5616 5615 5615 5615 5615 5613 5613 5616 5616 5618
5681 5677 5673 5671 5667 5666 5666 5660 5658 5659 5656 5654 5648 5644 5636 5632 5630 5627 5624 5622 5619 5616 5613 5614 5614 5615 5617 5614 5614 5616 5617 5617 5616 5615 5615 5615 5614 5613 5613 5615 5615 5618 5620
5680 5675 5672 5669 5662 5654 5646 5644 5652 5648 5653 5655 5651 5648 5640 5636 5635 5632 5629 5626 5621 5617 5615 5615 5615 5613 5612 5613 5616 5617 5616 5615 5615 5616 5615 5616 5615 5615 5617 5618 5621 5623 5625
5676 5676 5675 5670 5665 5658 5653 5644 5635 5638 5644 5649 5651 5651 5648 5642 5634 5630 5628 5625 5620 5618 5620 5617 5618 5616 5616 5616 5617 5618 5617 5618 5618 5619 5619 5619 5620 5619 5621 5624 5629 5631 5631
5678 5677 5673 5671 5668 5663 5659 5653 5645 5638 5641 5642 5644 5646 5645 5638 5633 5630 5628 5624 5621 5620 5627 5624 5623 5624 5624 5622 5620 5622 5621 5623 5624 5624 5624 5626 5629 5629 5628 5633 5635 5637 5637
5680 5677 5676 5673 5672 5666 5663 5660 5656 5655 5651 5644 5632 5633 5631 5631 5629 5628 5626 5625 5624 5626 5631 5631 5632 5631 5630 5629 5629 5628 5626 5626 5628 5629 5631 5633 5635 5636 5635 5637 5640 5640 5641
5681 5679 5675 5672 5672 5667 5666 5663 5665 5662 5654 5643 5634 5627 5624 5624 5624 5624 5626 5634 5635 5635 5635 5636 5638 5637 5636 5636 5635 5635 5637 5635 5634 5635 5636 5639 5641 5642 5644 5646 5647 5646 5646
5678 5676 5675 5674 5672 5668 5664 5665 5664 5660 5655 5650 5642 5633 5628 5630 5629 5629 5631 5636 5639 5641 5643 5641 5642 5642 5642 5642 5642 5641 5641 5639 5641 5641 5642 5644 5647 5651 5651 5651 5651 5649 5648
5689 5677 5678 5678 5676 5674 5672 5669 5669 5667 5663 5659 5650 5642 5636 5639 5634 5635 5637 5640 5642 5646 5646 5648 5648 5648 5649 5650 5650 5648 5646 5646 5646 5649 5650 5652 5652 5651 5651 5652 5654 5654 5654
5684 5688 5684 5684 5682 5678 5676 5675 5673 5671 5666 5663 5655 5644 5637 5646 5645 5647 5646 5646 5647 5649 5653 5651 5652 5653 5654 5653 5654 5653 5653 5653 5653 5653 5654 5656 5656 5655 5655 5654 5654 5654 5654
5675 5684 5683 5679 5688 5678 5672 5675 5672 5675 5671 5666 5661 5652 5643 5644 5645 5646 5654 5653 5646 5650 5647 5646 5651 5646 5647 5646 5645 5642 5643 5645 5647 5656 5657 5656 5655 5655 5656 5655 5655 5655 5655
5658 5665 5670 5668 5672 5671 5665 5663 5660 5658 5663 5661 5659 5653 5645 5643 5640 5639 5639 5638 5637 5637 5633 5630 5627 5625 5626 5627 5625 5625 5625 5627 5635 5643 5650 5654 5654 5656 5655 5656 5656 5658 5657
5631 5634 5641 5647 5649 5649 5647 5644 5644 5640 5640 5640 5636 5632 5631 5628 5627 5627 5629 5629 5629 5628 5622 5617 5615 5613 5610 5610 5611 5612 5616 5623 5627 5635 5639 5643 5645 5647 5649 5650 5651 5653 5653
5616 5616 5616 5616 5617 5619 5621 5620 5620 5621 5620 5619 5615 5612 5610 5610 5609 5610 5613 5615 5615 5614 5611 5605 5602 5603 5602 5601 5599 5602 5608 5616 5620 5626 5628 5629 5630 5631 5629 5632 5635 5637 5637